owner,sensor,date,latitude,longitude,vertical_datum,sea_water_temperature,qcFlag
BP,ioos:station:wmo:42369:3,2022-05-16T14:40:00Z,29.2536,-90.6610,0.5,35.0,11111222
BP,ioos:station:wmo:42369:3,2022-05-16T15:00:00Z,29.2536,-90.6610,0.5,33.1,11111222
BP,ioos:station:wmo:42369:3,2022-05-16T15:20:00Z,29.2536,-90.6610,0.7,33.0,11111222
BP,ioos:station:wmo:42369:3,2022-05-16T15:40:00Z,29.2536,-90.6610,0.3,32.8,11111222
BP,ioos:station:wmo:42369:3,2022-05-16T16:20:00Z,29.2536,-90.6610,0.1,32.5,11111222
BP,ioos:station:wmo:42369:3,2022-05-16T16:40:00Z,29.2536,-90.6610,0.7,32.4,11111222
BP,ioos:station:wmo:42369:3,2022-05-16T17:20:00Z,29.2536,-90.6609,0.7,32.1,11111222
BP,ioos:station:wmo:42369:3,2022-05-16T17:40:00Z,29.2536,-90.6609,0.8,32.0,11111222
BP,ioos:station:wmo:42369:3,2022-05-16T18:00:00Z,29.2536,-90.6609,0.3,31.8,11111222
BP,ioos:station:wmo:42369:3,2022-05-16T18:20:00Z,29.2536,-90.6609,0.5,31.4,11111222
BP,ioos:station:wmo:42369:3,2022-05-16T18:40:00Z,29.2536,-90.6609,0.5,30.8,11111222
BP,ioos:station:wmo:42369:3,2022-05-16T19:20:00Z,29.2536,-90.6610,0.8,29.7,11111222
BP,ioos:station:wmo:42369:3,2022-05-16T19:40:00Z,29.2536,-90.6610,0.7,29.3,11111222
BP,ioos:station:wmo:42369:3,2022-05-16T20:20:00Z,29.2536,-90.6610,0.5,28.6,11111222
BP,ioos:station:wmo:42369:3,2022-05-16T21:00:00Z,29.2536,-90.6610,0.7,28.1,11111222
BP,ioos:station:wmo:42369:3,2022-05-16T21:20:00Z,29.2536,-90.6610,0.7,27.9,11111222
BP,ioos:station:wmo:42369:3,2022-05-16T22:00:00Z,29.2536,-90.6610,1.0,27.4,11111222
BP,ioos:station:wmo:42369:3,2022-05-16T22:20:00Z,29.2536,-90.6610,0.8,27.2,11111222
BP,ioos:station:wmo:42369:3,2022-05-16T23:00:00Z,29.2536,-90.6610,0.5,26.9,11111222
BP,ioos:station:wmo:42369:3,2022-05-16T23:20:00Z,29.2536,-90.6609,1.1,26.7,11111222
BP,ioos:station:wmo:42369:3,2022-05-16T23:40:00Z,29.2536,-90.6609,1.3,26.6,11111222
BP,ioos:station:wmo:42369:3,2022-05-17T00:00:00Z,29.2535,-90.6610,1.1,26.5,11111222
BP,ioos:station:wmo:42369:3,2022-05-17T01:00:00Z,29.2535,-90.6610,0.9,26.3,11111222
BP,ioos:station:wmo:42369:3,2022-05-17T01:20:00Z,29.2535,-90.6610,0.8,26.2,11111222
BP,ioos:station:wmo:42369:3,2022-05-17T01:40:00Z,29.2535,-90.6610,0.5,26.1,11111222
BP,ioos:station:wmo:42369:3,2022-05-17T02:00:00Z,29.2535,-90.6610,0.4,26.1,11111222
BP,ioos:station:wmo:42369:3,2022-05-17T02:20:00Z,29.2535,-90.6610,0.7,26.0,11111222
BP,ioos:station:wmo:42369:3,2022-05-17T02:40:00Z,29.2535,-90.6610,0.5,25.9,11111222
BP,ioos:station:wmo:42369:3,2022-05-17T03:00:00Z,29.2535,-90.6610,0.6,25.9,11111222
BP,ioos:station:wmo:42369:3,2022-05-17T03:20:00Z,29.2535,-90.6610,0.6,25.8,11111222
BP,ioos:station:wmo:42369:3,2022-05-17T03:40:00Z,29.2535,-90.6609,0.7,25.7,11111222
BP,ioos:station:wmo:42369:3,2022-05-17T04:00:00Z,29.2535,-90.6609,0.6,25.7,11111222
BP,ioos:station:wmo:42369:3,2022-05-17T04:20:00Z,29.2535,-90.6609,0.7,25.6,11111222
BP,ioos:station:wmo:42369:3,2022-05-17T04:40:00Z,29.2535,-90.6609,1.6,25.6,11111222
BP,ioos:station:wmo:42369:3,2022-05-17T05:00:00Z,29.2535,-90.6609,0.2,25.5,11111222
BP,ioos:station:wmo:42369:3,2022-05-17T05:20:00Z,29.2535,-90.6609,0.8,25.5,11111222
BP,ioos:station:wmo:42369:3,2022-05-17T05:40:00Z,29.2535,-90.6609,0.6,25.4,11111222
BP,ioos:station:wmo:42369:3,2022-05-17T06:00:00Z,29.2535,-90.6609,0.4,25.5,11111222
BP,ioos:station:wmo:42369:3,2022-05-17T06:20:00Z,29.2535,-90.6609,0.8,25.5,11111222
BP,ioos:station:wmo:42369:3,2022-05-17T07:00:00Z,29.2535,-90.6609,0.5,25.8,11111222
BP,ioos:station:wmo:42369:3,2022-05-17T07:20:00Z,29.2535,-90.6609,0.9,25.9,11111222
BP,ioos:station:wmo:42369:3,2022-05-17T08:00:00Z,29.2535,-90.6609,0.8,26.5,11111222
BP,ioos:station:wmo:42369:3,2022-05-17T09:20:00Z,29.2535,-90.6609,0.1,29.1,11111222
BP,ioos:station:wmo:42369:3,2022-05-17T09:40:00Z,29.2535,-90.6609,0.6,29.9,11111222
BP,ioos:station:wmo:42369:3,2022-05-17T10:00:00Z,29.2535,-90.6609,0.1,30.8,11111222
BP,ioos:station:wmo:42369:3,2022-05-17T11:00:00Z,29.2535,-90.6609,0.5,32.4,11111222
BP,ioos:station:wmo:42369:3,2022-05-17T11:20:00Z,29.2536,-90.6610,0.6,32.6,11111222
BP,ioos:station:wmo:42369:3,2022-05-17T11:40:00Z,29.2536,-90.6609,0.7,33.0,11111222
BP,ioos:station:wmo:42369:3,2022-05-17T12:00:00Z,29.2536,-90.6609,0.4,33.5,11111222
BP,ioos:station:wmo:42369:3,2022-05-17T12:20:00Z,29.2535,-90.6609,0.7,33.6,11111222
BP,ioos:station:wmo:42369:3,2022-05-17T12:40:00Z,29.2536,-90.6609,0.4,33.4,11111222
BP,ioos:station:wmo:42369:3,2022-05-17T13:40:00Z,29.2535,-90.6610,0.3,33.0,11111222
BP,ioos:station:wmo:42369:3,2022-05-17T14:00:00Z,29.2535,-90.6610,0.2,33.0,11111222
BP,ioos:station:wmo:42369:3,2022-05-17T21:40:00Z,29.2535,-90.6609,0.7,34.8,11111222
BP,ioos:station:wmo:42369:3,2022-05-17T22:40:00Z,29.2535,-90.6609,0.5,32.9,11111222
BP,ioos:station:wmo:42369:3,2022-05-18T16:40:00Z,29.2536,-90.6610,0.6,32.1,11111222
BP,ioos:station:wmo:42369:3,2022-05-18T17:00:00Z,29.2536,-90.6610,0.3,30.6,11111222
BP,ioos:station:wmo:42369:3,2022-05-18T17:40:00Z,29.2536,-90.6610,0.4,31.4,11111222
BP,ioos:station:wmo:42369:3,2022-05-18T18:00:00Z,29.2536,-90.6610,0.4,31.7,11111222
BP,ioos:station:wmo:42369:3,2022-05-18T18:20:00Z,29.2536,-90.6610,0.9,32.0,11111222
BP,ioos:station:wmo:42369:3,2022-05-18T18:40:00Z,29.2536,-90.6610,0.3,32.3,11111222
BP,ioos:station:wmo:42369:3,2022-05-18T19:00:00Z,29.2536,-90.6610,0.3,32.6,11111222
BP,ioos:station:wmo:42369:3,2022-05-18T19:20:00Z,29.2536,-90.6610,0.2,32.8,11111222
BP,ioos:station:wmo:42369:3,2022-05-18T19:40:00Z,29.2535,-90.6610,0.3,33.0,11111222
BP,ioos:station:wmo:42369:3,2022-05-18T20:00:00Z,29.2535,-90.6610,0.4,33.2,11111222
BP,ioos:station:wmo:42369:3,2022-05-18T20:20:00Z,29.2535,-90.6610,0.4,33.3,11111222
BP,ioos:station:wmo:42369:3,2022-05-18T21:00:00Z,29.2535,-90.6609,0.9,33.6,11111222
BP,ioos:station:wmo:42369:3,2022-05-18T21:20:00Z,29.2535,-90.6610,0.5,33.6,11111222
BP,ioos:station:wmo:42369:3,2022-05-18T21:40:00Z,29.2536,-90.6610,0.1,33.5,11111222
BP,ioos:station:wmo:42369:3,2022-05-18T22:00:00Z,29.2535,-90.6609,0.3,33.5,11111222
BP,ioos:station:wmo:42369:3,2022-05-18T22:20:00Z,29.2535,-90.6609,0.2,33.3,11111222
BP,ioos:station:wmo:42369:3,2022-05-18T22:40:00Z,29.2535,-90.6609,0.3,33.1,11111222
BP,ioos:station:wmo:42369:3,2022-05-18T23:00:00Z,29.2535,-90.6610,0.6,32.9,11111222
BP,ioos:station:wmo:42369:3,2022-05-18T23:40:00Z,29.2536,-90.6609,0.6,32.5,11111222
BP,ioos:station:wmo:42369:3,2022-05-19T00:40:00Z,29.2536,-90.6610,0.2,31.4,11111222
BP,ioos:station:wmo:42369:3,2022-05-19T01:00:00Z,29.2536,-90.6609,0.1,31.0,11111222
BP,ioos:station:wmo:42369:3,2022-05-19T02:00:00Z,29.2535,-90.6609,0.5,29.9,11111222
BP,ioos:station:wmo:42369:3,2022-05-19T02:20:00Z,29.2535,-90.6610,0.5,29.6,11111222
BP,ioos:station:wmo:42369:3,2022-05-19T03:00:00Z,29.2535,-90.6610,0.6,29.1,11111222
BP,ioos:station:wmo:42369:3,2022-05-19T03:20:00Z,29.2535,-90.6610,0.8,28.9,11111222
BP,ioos:station:wmo:42369:3,2022-05-19T03:40:00Z,29.2535,-90.6610,0.5,28.7,11111222
BP,ioos:station:wmo:42369:3,2022-05-19T04:00:00Z,29.2535,-90.6610,0.7,28.5,11111222
BP,ioos:station:wmo:42369:3,2022-05-19T04:20:00Z,29.2535,-90.6610,0.6,28.4,11111222
BP,ioos:station:wmo:42369:3,2022-05-19T04:40:00Z,29.2535,-90.6610,0.5,28.3,11111222
BP,ioos:station:wmo:42369:3,2022-05-19T05:00:00Z,29.2535,-90.6610,0.6,28.1,11111222
BP,ioos:station:wmo:42369:3,2022-05-19T05:20:00Z,29.2535,-90.6610,0.6,28.0,11111222
BP,ioos:station:wmo:42369:3,2022-05-19T05:40:00Z,29.2535,-90.6610,1.0,27.9,11111222
BP,ioos:station:wmo:42369:3,2022-05-19T06:00:00Z,29.2535,-90.6610,0.5,27.8,11111222
BP,ioos:station:wmo:42369:3,2022-05-19T06:20:00Z,29.2535,-90.6610,0.1,27.7,11111222
BP,ioos:station:wmo:42369:3,2022-05-19T06:40:00Z,29.2536,-90.6610,0.8,27.6,11111222
BP,ioos:station:wmo:42369:3,2022-05-19T07:00:00Z,29.2535,-90.6610,0.9,27.5,11111222
BP,ioos:station:wmo:42369:3,2022-05-19T07:20:00Z,29.2535,-90.6610,0.7,27.4,11111222
BP,ioos:station:wmo:42369:3,2022-05-19T07:40:00Z,29.2535,-90.6609,0.9,27.3,11111222
BP,ioos:station:wmo:42369:3,2022-05-19T08:00:00Z,29.2536,-90.6609,0.4,27.3,11111222
BP,ioos:station:wmo:42369:3,2022-05-19T08:20:00Z,29.2535,-90.6609,0.7,27.2,11111222
BP,ioos:station:wmo:42369:3,2022-05-19T08:40:00Z,29.2536,-90.6609,0.6,27.1,11111222
BP,ioos:station:wmo:42369:3,2022-05-19T09:00:00Z,29.2535,-90.6610,0.5,27.0,11111222
BP,ioos:station:wmo:42369:3,2022-05-19T09:20:00Z,29.2536,-90.6610,0.5,26.9,11111222
BP,ioos:station:wmo:42369:3,2022-05-19T09:40:00Z,29.2535,-90.6610,0.9,26.9,11111222
BP,ioos:station:wmo:42369:3,2022-05-19T10:00:00Z,29.2535,-90.6610,0.6,26.8,11111222
BP,ioos:station:wmo:42369:3,2022-05-19T10:20:00Z,29.2536,-90.6610,0.6,26.8,11111222
BP,ioos:station:wmo:42369:3,2022-05-19T10:40:00Z,29.2536,-90.6609,0.8,26.7,11111222
BP,ioos:station:wmo:42369:3,2022-05-19T11:00:00Z,29.2536,-90.6610,1.0,26.6,11111222
BP,ioos:station:wmo:42369:3,2022-05-19T11:20:00Z,29.2536,-90.6609,0.5,26.6,11111222
BP,ioos:station:wmo:42369:3,2022-05-19T11:40:00Z,29.2536,-90.6609,0.3,26.5,11111222
BP,ioos:station:wmo:42369:3,2022-05-19T12:00:00Z,29.2536,-90.6609,0.9,26.5,11111222
BP,ioos:station:wmo:42369:3,2022-05-19T12:20:00Z,29.2536,-90.6610,0.5,26.5,11111222
BP,ioos:station:wmo:42369:3,2022-05-19T12:40:00Z,29.2536,-90.6610,0.7,26.5,11111222
BP,ioos:station:wmo:42369:3,2022-05-19T13:00:00Z,29.2536,-90.6610,0.6,26.6,11111222
BP,ioos:station:wmo:42369:3,2022-05-19T13:20:00Z,29.2535,-90.6610,0.5,26.7,11111222
BP,ioos:station:wmo:42369:3,2022-05-19T13:40:00Z,29.2535,-90.6610,0.8,26.8,11111222
BP,ioos:station:wmo:42369:3,2022-05-19T14:00:00Z,29.2535,-90.6610,0.4,27.0,11111222
BP,ioos:station:wmo:42369:3,2022-05-19T14:20:00Z,29.2536,-90.6610,1.1,27.2,11111222
BP,ioos:station:wmo:42369:3,2022-05-19T14:40:00Z,29.2535,-90.6610,0.6,27.5,11111222
BP,ioos:station:wmo:42369:3,2022-05-19T15:00:00Z,29.2535,-90.6610,1.2,27.9,11111222
BP,ioos:station:wmo:42369:3,2022-05-19T15:20:00Z,29.2536,-90.6610,0.8,28.4,11111222
BP,ioos:station:wmo:42369:3,2022-05-19T15:40:00Z,29.2535,-90.6610,0.6,29.0,11111222
BP,ioos:station:wmo:42369:3,2022-05-19T16:00:00Z,29.2536,-90.6610,1.0,29.5,11111222
BP,ioos:station:wmo:42369:3,2022-05-19T16:20:00Z,29.2536,-90.6610,0.5,30.1,11111222
BP,ioos:station:wmo:42369:3,2022-05-19T16:40:00Z,29.2536,-90.6610,0.7,30.6,11111222
BP,ioos:station:wmo:42369:3,2022-05-19T17:00:00Z,29.2536,-90.6610,0.2,30.9,11111222
BP,ioos:station:wmo:42369:3,2022-05-19T17:20:00Z,29.2536,-90.6610,0.5,31.3,11111222
BP,ioos:station:wmo:42369:3,2022-05-19T17:40:00Z,29.2536,-90.6610,0.8,31.6,11111222
BP,ioos:station:wmo:42369:3,2022-05-19T18:00:00Z,29.2535,-90.6610,0.5,32.0,11111222
BP,ioos:station:wmo:42369:3,2022-05-19T18:20:00Z,29.2536,-90.6610,0.7,32.2,11111222
BP,ioos:station:wmo:42369:3,2022-05-19T18:40:00Z,29.2536,-90.6609,0.1,32.3,11111222
BP,ioos:station:wmo:42369:3,2022-05-19T19:00:00Z,29.2535,-90.6610,0.7,32.4,11111222
BP,ioos:station:wmo:42369:3,2022-05-19T20:20:00Z,29.2536,-90.6610,0.7,32.5,11111222
BP,ioos:station:wmo:42369:3,2022-05-19T20:40:00Z,29.2536,-90.6610,0.6,32.5,11111222
BP,ioos:station:wmo:42369:3,2022-05-19T21:00:00Z,29.2535,-90.6609,0.3,32.5,11111222
BP,ioos:station:wmo:42369:3,2022-05-19T21:20:00Z,29.2535,-90.6609,0.4,32.4,11111222
BP,ioos:station:wmo:42369:3,2022-05-19T21:40:00Z,29.2536,-90.6609,0.6,32.4,11111222
BP,ioos:station:wmo:42369:3,2022-05-19T22:00:00Z,29.2536,-90.6609,0.4,32.3,11111222
BP,ioos:station:wmo:42369:3,2022-05-19T22:20:00Z,29.2535,-90.6609,0.6,32.3,11111222
BP,ioos:station:wmo:42369:3,2022-05-19T23:40:00Z,29.2536,-90.6610,0.8,31.3,11111222
BP,ioos:station:wmo:42369:3,2022-05-20T00:00:00Z,29.2536,-90.6610,0.8,31.0,11111222
BP,ioos:station:wmo:42369:3,2022-05-20T00:20:00Z,29.2536,-90.6610,0.9,30.6,11111222
BP,ioos:station:wmo:42369:3,2022-05-20T01:00:00Z,29.2535,-90.6610,0.8,29.9,11111222
BP,ioos:station:wmo:42369:3,2022-05-20T01:20:00Z,29.2535,-90.6609,0.8,29.5,11111222
BP,ioos:station:wmo:42369:3,2022-05-20T01:40:00Z,29.2535,-90.6610,0.7,29.3,11111222
BP,ioos:station:wmo:42369:3,2022-05-20T02:20:00Z,29.2535,-90.6610,0.4,28.8,11111222
BP,ioos:station:wmo:42369:3,2022-05-20T02:40:00Z,29.2535,-90.6610,0.9,28.6,11111222
BP,ioos:station:wmo:42369:3,2022-05-20T03:00:00Z,29.2535,-90.6610,1.0,28.4,11111222
BP,ioos:station:wmo:42369:3,2022-05-20T03:20:00Z,29.2535,-90.6610,0.5,28.3,11111222
BP,ioos:station:wmo:42369:3,2022-05-20T03:40:00Z,29.2535,-90.6610,0.7,28.1,11111222
BP,ioos:station:wmo:42369:3,2022-05-20T04:20:00Z,29.2535,-90.6610,1.3,27.8,11111222
BP,ioos:station:wmo:42369:3,2022-05-20T04:40:00Z,29.2536,-90.6610,1.1,27.7,11111222
BP,ioos:station:wmo:42369:3,2022-05-20T05:00:00Z,29.2536,-90.6610,1.0,27.6,11111222
BP,ioos:station:wmo:42369:3,2022-05-20T05:40:00Z,29.2536,-90.6609,1.1,27.4,11111222
BP,ioos:station:wmo:42369:3,2022-05-20T06:00:00Z,29.2535,-90.6609,0.3,27.4,11111222
BP,ioos:station:wmo:42369:3,2022-05-20T06:20:00Z,29.2535,-90.6610,1.3,27.3,11111222
BP,ioos:station:wmo:42369:3,2022-05-20T06:40:00Z,29.2536,-90.6610,0.9,27.2,11111222
BP,ioos:station:wmo:42369:3,2022-05-20T07:00:00Z,29.2535,-90.6610,1.2,27.2,11111222
BP,ioos:station:wmo:42369:3,2022-05-20T07:40:00Z,29.2535,-90.6610,0.2,27.1,11111222
BP,ioos:station:wmo:42369:3,2022-05-20T08:00:00Z,29.2535,-90.6610,1.7,27.1,11111222
BP,ioos:station:wmo:42369:3,2022-05-20T08:20:00Z,29.2536,-90.6609,0.4,27.0,11111222
BP,ioos:station:wmo:42369:3,2022-05-20T08:40:00Z,29.2536,-90.6610,0.9,26.9,11111222
BP,ioos:station:wmo:42369:3,2022-05-20T09:00:00Z,29.2536,-90.6610,0.6,26.8,11111222
BP,ioos:station:wmo:42369:3,2022-05-20T09:40:00Z,29.2535,-90.6610,0.1,26.7,11111222
BP,ioos:station:wmo:42369:3,2022-05-20T10:00:00Z,29.2535,-90.6610,0.6,26.6,11111222
BP,ioos:station:wmo:42369:3,2022-05-20T10:20:00Z,29.2536,-90.6610,0.4,26.5,11111222
BP,ioos:station:wmo:42369:3,2022-05-20T10:40:00Z,29.2535,-90.6610,0.3,26.5,11111222
BP,ioos:station:wmo:42369:3,2022-05-20T11:00:00Z,29.2536,-90.6610,0.4,26.4,11111222
BP,ioos:station:wmo:42369:3,2022-05-20T11:20:00Z,29.2535,-90.6610,0.5,26.4,11111222
BP,ioos:station:wmo:42369:3,2022-05-20T11:40:00Z,29.2535,-90.6610,0.4,26.4,11111222
BP,ioos:station:wmo:42369:3,2022-05-20T12:00:00Z,29.2535,-90.6610,0.6,26.4,11111222
BP,ioos:station:wmo:42369:3,2022-05-20T12:20:00Z,29.2536,-90.6610,0.4,26.5,11111222
BP,ioos:station:wmo:42369:3,2022-05-20T13:00:00Z,29.2535,-90.6610,0.4,26.7,11111222
BP,ioos:station:wmo:42369:3,2022-05-20T13:20:00Z,29.2536,-90.6610,0.4,26.9,11111222
BP,ioos:station:wmo:42369:3,2022-05-20T13:40:00Z,29.2536,-90.6610,0.4,27.0,11111222
BP,ioos:station:wmo:42369:3,2022-05-20T14:20:00Z,29.2536,-90.6610,0.9,27.4,11111222
BP,ioos:station:wmo:42369:3,2022-05-20T14:40:00Z,29.2536,-90.6610,0.3,27.7,11111222
BP,ioos:station:wmo:42369:3,2022-05-20T15:00:00Z,29.2536,-90.6610,0.6,28.2,11111222
BP,ioos:station:wmo:42369:3,2022-05-20T15:40:00Z,29.2536,-90.6610,0.9,29.2,11111222
BP,ioos:station:wmo:42369:3,2022-05-20T16:00:00Z,29.2536,-90.6610,0.8,29.6,11111222
BP,ioos:station:wmo:42369:3,2022-05-20T16:40:00Z,29.2536,-90.6609,0.2,30.3,11111222
BP,ioos:station:wmo:42369:3,2022-05-20T17:20:00Z,29.2536,-90.6610,0.6,30.8,11111222
BP,ioos:station:wmo:42369:3,2022-05-20T17:40:00Z,29.2536,-90.6610,0.7,31.0,11111222
BP,ioos:station:wmo:42369:3,2022-05-20T18:00:00Z,29.2535,-90.6610,0.5,31.2,11111222
BP,ioos:station:wmo:42369:3,2022-05-20T18:40:00Z,29.2536,-90.6609,0.4,31.5,11111222
BP,ioos:station:wmo:42369:3,2022-05-20T19:20:00Z,29.2535,-90.6610,0.8,31.6,11111222
BP,ioos:station:wmo:42369:3,2022-05-20T20:20:00Z,29.2536,-90.6610,0.3,31.9,11111222
BP,ioos:station:wmo:42369:3,2022-05-20T20:40:00Z,29.2536,-90.6610,0.6,31.9,11111222
BP,ioos:station:wmo:42369:3,2022-05-20T21:00:00Z,29.2535,-90.6609,0.5,31.9,11111222
BP,ioos:station:wmo:42369:3,2022-05-20T21:20:00Z,29.2535,-90.6609,0.6,32.0,11111222
BP,ioos:station:wmo:42369:3,2022-05-20T21:40:00Z,29.2536,-90.6609,0.2,32.0,11111222
BP,ioos:station:wmo:42369:3,2022-05-20T22:00:00Z,29.2535,-90.6609,0.7,31.9,11111222
BP,ioos:station:wmo:42369:3,2022-05-20T22:20:00Z,29.2535,-90.6609,0.4,31.9,11111222
BP,ioos:station:wmo:42369:3,2022-05-20T22:40:00Z,29.2535,-90.6609,0.4,31.7,11111222
BP,ioos:station:wmo:42369:3,2022-05-20T23:00:00Z,29.2535,-90.6609,0.6,31.6,11111222
BP,ioos:station:wmo:42369:3,2022-05-21T00:00:00Z,29.2536,-90.6610,0.8,30.9,11111222
BP,ioos:station:wmo:42369:3,2022-05-21T00:40:00Z,29.2536,-90.6609,0.7,30.3,11111222
BP,ioos:station:wmo:42369:3,2022-05-21T01:00:00Z,29.2536,-90.6609,0.6,30.0,11111222
BP,ioos:station:wmo:42369:3,2022-05-21T01:20:00Z,29.2535,-90.6609,0.8,29.8,11111222
BP,ioos:station:wmo:42369:3,2022-05-21T01:40:00Z,29.2535,-90.6610,1.2,29.6,11111222
BP,ioos:station:wmo:42369:3,2022-05-21T02:00:00Z,29.2536,-90.6610,0.3,29.4,11111222
BP,ioos:station:wmo:42369:3,2022-05-21T02:40:00Z,29.2535,-90.6609,0.6,29.0,11111222
BP,ioos:station:wmo:42369:3,2022-05-21T03:00:00Z,29.2535,-90.6610,0.8,28.9,11111222
BP,ioos:station:wmo:42369:3,2022-05-21T03:20:00Z,29.2535,-90.6610,1.0,28.7,11111222
BP,ioos:station:wmo:42369:3,2022-05-21T04:00:00Z,29.2535,-90.6610,0.7,28.5,11111222
BP,ioos:station:wmo:42369:3,2022-05-21T04:20:00Z,29.2535,-90.6610,0.6,28.4,11111222
BP,ioos:station:wmo:42369:3,2022-05-21T05:00:00Z,29.2535,-90.6610,0.8,28.3,11111222
BP,ioos:station:wmo:42369:3,2022-05-21T05:20:00Z,29.2535,-90.6610,0.5,28.2,11111222
BP,ioos:station:wmo:42369:3,2022-05-21T05:40:00Z,29.2535,-90.6610,0.6,28.1,11111222
BP,ioos:station:wmo:42369:3,2022-05-21T06:20:00Z,29.2535,-90.6610,0.7,28.0,11111222
BP,ioos:station:wmo:42369:3,2022-05-21T06:40:00Z,29.2535,-90.6610,0.9,27.9,11111222
BP,ioos:station:wmo:42369:3,2022-05-21T07:20:00Z,29.2535,-90.6610,1.5,27.9,11111222
BP,ioos:station:wmo:42369:3,2022-05-21T07:40:00Z,29.2536,-90.6609,0.7,27.8,11111222
BP,ioos:station:wmo:42369:3,2022-05-21T08:00:00Z,29.2536,-90.6609,0.5,27.8,11111222
BP,ioos:station:wmo:42369:3,2022-05-21T08:20:00Z,29.2536,-90.6609,1.1,27.8,11111222
BP,ioos:station:wmo:42369:3,2022-05-21T09:20:00Z,29.2536,-90.6610,0.5,27.7,11111222
BP,ioos:station:wmo:42369:3,2022-05-21T09:40:00Z,29.2536,-90.6610,0.6,27.7,11111222
BP,ioos:station:wmo:42369:3,2022-05-21T10:00:00Z,29.2536,-90.6610,0.9,27.6,11111222
BP,ioos:station:wmo:42369:3,2022-05-21T11:20:00Z,29.2536,-90.6610,0.8,27.6,11111222
BP,ioos:station:wmo:42369:3,2022-05-21T11:40:00Z,29.2535,-90.6610,0.8,27.5,11111222
BP,ioos:station:wmo:42369:3,2022-05-21T12:00:00Z,29.2536,-90.6610,1.0,27.6,11111222
BP,ioos:station:wmo:42369:3,2022-05-21T13:00:00Z,29.2535,-90.6610,0.5,27.7,11111222
BP,ioos:station:wmo:42369:3,2022-05-21T13:20:00Z,29.2535,-90.6610,0.4,27.8,11111222
BP,ioos:station:wmo:42369:3,2022-05-21T14:40:00Z,29.2535,-90.6610,0.3,28.6,11111222
BP,ioos:station:wmo:42369:3,2022-05-21T15:00:00Z,29.2535,-90.6610,0.3,29.1,11111222
BP,ioos:station:wmo:42369:3,2022-05-21T15:20:00Z,29.2535,-90.6610,0.7,29.6,11111222
BP,ioos:station:wmo:42369:3,2022-05-21T16:00:00Z,29.2535,-90.6610,0.4,30.5,11111222
BP,ioos:station:wmo:42369:3,2022-05-21T16:20:00Z,29.2536,-90.6610,0.8,30.6,11111222
BP,ioos:station:wmo:42369:3,2022-05-21T16:40:00Z,29.2536,-90.6610,0.2,30.8,11111222
BP,ioos:station:wmo:42369:3,2022-05-21T17:00:00Z,29.2536,-90.6610,0.5,31.2,11111222
BP,ioos:station:wmo:42369:3,2022-05-21T17:20:00Z,29.2536,-90.6609,0.4,31.3,11111222
BP,ioos:station:wmo:42369:3,2022-05-21T18:00:00Z,29.2535,-90.6609,0.7,30.8,11111222
BP,ioos:station:wmo:42369:3,2022-05-21T18:20:00Z,29.2536,-90.6610,0.5,30.7,11111222
BP,ioos:station:wmo:42369:3,2022-05-21T19:00:00Z,29.2535,-90.6610,0.7,31.1,11111222
BP,ioos:station:wmo:42369:3,2022-05-21T19:20:00Z,29.2535,-90.6610,0.8,31.3,11111222
BP,ioos:station:wmo:42369:3,2022-05-21T19:40:00Z,29.2535,-90.6610,0.3,31.6,11111222
BP,ioos:station:wmo:42369:3,2022-05-21T20:00:00Z,29.2535,-90.6610,0.4,31.8,11111222
BP,ioos:station:wmo:42369:3,2022-05-21T20:20:00Z,29.2536,-90.6610,0.7,31.9,11111222
BP,ioos:station:wmo:42369:3,2022-05-21T20:40:00Z,29.2536,-90.6610,0.7,32.0,11111222
BP,ioos:station:wmo:42369:3,2022-05-21T21:20:00Z,29.2535,-90.6610,0.5,32.0,11111222
BP,ioos:station:wmo:42369:3,2022-05-21T21:40:00Z,29.2536,-90.6609,0.7,31.9,11111222
BP,ioos:station:wmo:42369:3,2022-05-21T22:00:00Z,29.2535,-90.6609,0.5,31.7,11111222
BP,ioos:station:wmo:42369:3,2022-05-21T22:40:00Z,29.2535,-90.6609,0.8,30.9,11111222
BP,ioos:station:wmo:42369:3,2022-05-21T23:00:00Z,29.2535,-90.6609,0.8,30.4,11111222
BP,ioos:station:wmo:42369:3,2022-05-21T23:20:00Z,29.2535,-90.6609,0.9,29.9,11111222
BP,ioos:station:wmo:42369:3,2022-05-21T23:40:00Z,29.2536,-90.6610,0.6,29.5,11111222
BP,ioos:station:wmo:42369:3,2022-05-22T00:00:00Z,29.2536,-90.6610,0.8,29.3,11111222
BP,ioos:station:wmo:42369:3,2022-05-22T01:00:00Z,29.2535,-90.6609,1.6,28.5,11111222
BP,ioos:station:wmo:42369:3,2022-05-22T01:20:00Z,29.2535,-90.6610,1.2,28.3,11111222
BP,ioos:station:wmo:42369:3,2022-05-22T01:40:00Z,29.2535,-90.6610,0.9,28.1,11111222
BP,ioos:station:wmo:42369:3,2022-05-22T02:00:00Z,29.2535,-90.6609,0.7,27.8,11111222
BP,ioos:station:wmo:42369:3,2022-05-22T02:20:00Z,29.2535,-90.6609,0.8,27.5,11111222
BP,ioos:station:wmo:42369:3,2022-05-22T02:40:00Z,29.2535,-90.6610,0.9,27.3,11111222
BP,ioos:station:wmo:42369:3,2022-05-22T03:00:00Z,29.2535,-90.6610,0.9,27.2,11111222
BP,ioos:station:wmo:42369:3,2022-05-22T03:20:00Z,29.2535,-90.6609,0.7,27.1,11111222
BP,ioos:station:wmo:42369:3,2022-05-22T03:40:00Z,29.2535,-90.6610,1.1,27.0,11111222
BP,ioos:station:wmo:42369:3,2022-05-22T04:00:00Z,29.2535,-90.6610,0.8,26.9,11111222
BP,ioos:station:wmo:42369:3,2022-05-22T04:20:00Z,29.2535,-90.6610,1.0,26.8,11111222
BP,ioos:station:wmo:42369:3,2022-05-22T04:40:00Z,29.2535,-90.6610,1.1,26.8,11111222
BP,ioos:station:wmo:42369:3,2022-05-22T05:00:00Z,29.2535,-90.6610,0.9,26.8,11111222
BP,ioos:station:wmo:42369:3,2022-05-22T05:20:00Z,29.2535,-90.6610,0.6,26.8,11111222
BP,ioos:station:wmo:42369:3,2022-05-22T05:40:00Z,29.2535,-90.6610,0.9,26.7,11111222
BP,ioos:station:wmo:42369:3,2022-05-22T06:00:00Z,29.2535,-90.6610,0.7,26.7,11111222
BP,ioos:station:wmo:42369:3,2022-05-22T06:20:00Z,29.2535,-90.6610,0.8,26.7,11111222
BP,ioos:station:wmo:42369:3,2022-05-22T07:00:00Z,29.2535,-90.6610,0.7,26.6,11111222
BP,ioos:station:wmo:42369:3,2022-05-22T07:20:00Z,29.2535,-90.6610,1.1,26.6,11111222
BP,ioos:station:wmo:42369:3,2022-05-22T08:00:00Z,29.2536,-90.6609,0.9,26.5,11111222
BP,ioos:station:wmo:42369:3,2022-05-22T08:20:00Z,29.2536,-90.6610,0.8,26.4,11111222
BP,ioos:station:wmo:42369:3,2022-05-22T09:00:00Z,29.2535,-90.6610,0.4,26.4,11111222
BP,ioos:station:wmo:42369:3,2022-05-22T09:20:00Z,29.2535,-90.6610,0.9,26.4,11111222
BP,ioos:station:wmo:42369:3,2022-05-22T10:00:00Z,29.2536,-90.6610,0.7,26.3,11111222
BP,ioos:station:wmo:42369:3,2022-05-22T10:20:00Z,29.2536,-90.6609,0.7,26.3,11111222
BP,ioos:station:wmo:42369:3,2022-05-22T10:40:00Z,29.2536,-90.6610,0.8,26.3,11111222
BP,ioos:station:wmo:42369:3,2022-05-22T11:00:00Z,29.2536,-90.6609,0.7,26.3,11111222
BP,ioos:station:wmo:42369:3,2022-05-22T11:20:00Z,29.2536,-90.6609,1.4,26.3,11111222
BP,ioos:station:wmo:42369:3,2022-05-22T11:40:00Z,29.2535,-90.6610,0.8,26.3,11111222
BP,ioos:station:wmo:42369:3,2022-05-22T12:00:00Z,29.2536,-90.6610,0.3,26.3,11111222
BP,ioos:station:wmo:42369:3,2022-05-22T12:20:00Z,29.2536,-90.6610,0.9,26.4,11111222
BP,ioos:station:wmo:42369:3,2022-05-22T12:40:00Z,29.2535,-90.6610,0.3,26.4,11111222
BP,ioos:station:wmo:42369:3,2022-05-22T13:00:00Z,29.2535,-90.6610,0.6,26.5,11111222
BP,ioos:station:wmo:42369:3,2022-05-22T13:20:00Z,29.2535,-90.6610,1.0,26.6,11111222
BP,ioos:station:wmo:42369:3,2022-05-22T13:40:00Z,29.2535,-90.6610,0.8,26.8,11111222
BP,ioos:station:wmo:42369:3,2022-05-22T14:00:00Z,29.2535,-90.6610,0.8,26.9,11111222
BP,ioos:station:wmo:42369:3,2022-05-22T14:20:00Z,29.2535,-90.6610,0.7,27.1,11111222
BP,ioos:station:wmo:42369:3,2022-05-22T14:40:00Z,29.2535,-90.6610,0.7,27.3,11111222
BP,ioos:station:wmo:42369:3,2022-05-22T15:00:00Z,29.2535,-90.6610,0.4,27.6,11111222